EST,Max TemperatureF,Mean TemperatureF,Min TemperatureF,Max Dew PointF,MeanDew PointF,Min DewpointF,Max Humidity, Mean Humidity, Min Humidity, Max Sea Level PressureIn, Mean Sea Level PressureIn, Min Sea Level PressureIn, Max VisibilityMiles, Mean VisibilityMiles, Min VisibilityMiles, Max Wind SpeedMPH, Mean Wind SpeedMPH, Max Gust SpeedMPH,PrecipitationIn, CloudCover, Events, WindDirDegrees
2013-1-1,30,26,21,19,16,12,75,68,58,30.18,30.14,30.06,10,9,2,12,6,16,0.00,7,Snow,331
2013-1-2,28,22,17,19,13,4,75,64,54,30.21,30.17,30.13,10,10,10,12,9,17,0.00,5,,230
2013-1-3,32,24,17,26,20,4,86,74,56,30.23,30.15,30.07,10,8,5,20,11,29,0.00,8,,246
2013-1-4,36,30,24,26,22,18,81,73,59,30.23,30.19,30.14,10,10,9,24,19,33,0.00,4,,249
2013-1-5,36,30,23,31,27,19,93,83,61,30.26,30.11,30.00,10,5,1,14,9,23,0.03,6,Snow,193
2013-1-6,37,34,32,32,28,23,89,76,64,30.32,30.09,29.91,10,9,4,22,12,32,0.00,8,,275
2013-1-7,36,28,21,26,21,16,89,72,44,30.37,30.27,30.15,10,8,4,18,9,29,0.00,1,,198
2013-1-8,41,34,26,27,24,21,84,71,55,30.22,30.16,30.10,10,7,4,12,8,,0.00,0,,168
2013-1-9,46,42,33,33,30,26,79,66,51,30.48,30.24,30.04,10,10,10,21,13,31,0.01,1,,249
2013-1-10,44,34,23,36,28,21,96,80,51,30.54,30.31,30.00,10,8,2,20,6,28,0.16,3,Rain,119
2013-1-11,54,46,39,52,44,37,100,90,80,29.99,29.81,29.71,10,7,2,17,13,30,0.32,6,Rain,164
2013-1-12,55,47,37,47,41,34,86,76,68,29.98,29.87,29.76,10,10,6,18,10,31,0.07,2,Rain,223
2013-1-13,37,30,21,36,30,17,100,92,77,30.19,29.96,29.84,10,5,0,18,6,28,0.07,8,Fog-Rain-Snow,306
2013-1-14,25,22,17,17,15,14,88,73,66,30.46,30.40,30.22,10,10,8,15,8,22,0.00,6,,267
2013-1-15,30,22,14,20,16,11,88,76,57,30.44,30.35,30.16,10,9,6,7,1,,0.00,2,,155
2013-1-16,37,26,16,29,21,13,88,75,52,30.11,29.99,29.86,10,8,5,25,9,33,0.00,4,,223
2013-1-17,37,31,25,29,19,12,73,62,53,30.38,30.25,30.03,10,10,10,14,9,24,0.00,6,,308
2013-1-18,42,33,25,25,19,11,72,58,51,30.43,30.22,29.95,10,10,10,22,11,33,0.00,4,,215
2013-1-19,46,42,39,36,30,25,74,61,51,29.95,29.84,29.71,10,10,10,30,19,41,0.00,4,,221
2013-1-20,32,24,17,16,10,6,74,66,51,30.27,30.18,29.83,10,6,1,31,17,46,0.00,8,Snow,294
2013-1-21,19,14,8,12,4,-2,85,70,57,30.23,30.11,30.06,10,2,0,23,15,32,0.00,8,Fog-Snow,288
2013-1-22,12,9,6,7,1,-4,85,71,57,30.36,30.27,30.19,10,2,0,18,14,29,0.00,8,Fog-Snow,286
2013-1-23,21,16,12,18,11,3,88,76,57,30.33,30.17,30.06,10,2,0,21,12,33,0.03,8,Fog-Snow,277
2013-1-24,17,13,9,12,7,-1,88,72,45,30.65,30.42,30.20,10,5,0,12,7,26,0.20,4,Fog-Snow,68
2013-1-25,28,22,16,21,15,3,93,76,57,30.44,30.09,29.97,10,5,1,20,9,28,0.00,8,Snow,196
2013-1-26,28,26,21,19,17,14,80,69,61,30.45,30.28,30.07,10,8,2,12,6,20,0.00,7,Snow,346
2013-1-27,34,28,21,31,23,16,89,78,64,30.43,30.21,29.99,10,5,0,23,10,36,0.26,7,Rain-Snow-Thunderstorm,136
2013-1-28,48,42,35,47,39,32,100,96,87,30.00,29.92,29.83,10,3,0,18,10,28,0.05,8,Fog-Rain,178
2013-1-29,60,48,37,56,51,36,100,95,82,29.92,29.63,29.40,9,4,0,18,11,33,0.46,8,Fog-Rain-Thunderstorm,184
2013-1-30,50,39,27,50,36,21,100,93,78,29.49,29.31,29.16,10,3,1,23,8,39,0.67,8,Rain-Snow,284
2013-1-31,26,20,15,19,12,9,93,76,68,30.04,29.78,29.54,10,2,0,30,20,37,0.00,8,Fog-Snow,276